Flag for Mexico Weather past 2 weeks in Merida, Yucatán, Mexico

Now
88 °F

Broken clouds.


Feels Like: 93 °F
Forecast: 74 / 92 °F
Wind: 5 mph from East

Location: Aerop. Internacional Merida - Yuc

Current Time: Sep 19, 2014 at 7:10:17 PM

Latest Report: Sep 19, 2014 at 6:42 PM


Visibility: 7 mi

Pressure: 29.83 "Hg

Humidity: 55%

Dew point: 70 °F

Location of MeridaLocation

Historic Weather in Merida — Graph

°F

Merida temperature yesterday

Maximum temperature yesterday: 93 °F (at 2:42 PM)
Minimum temperature yesterday: 73 °F (at 6:50 AM)
Average temperature yesterday: 83 °F

Past Weeks' High & Low Weather Summary

 TemperatureHumidityPressure
High93 °F (Sep 5, 2:47 PM)100% (Sep 5, 4:52 AM)30.05 "Hg (Sep 5, 4:52 AM)
Low70 °F (Sep 5, 7:01 PM)36% (Sep 17, 3:50 PM)29.80 "Hg (Sep 19, 4:51 PM)
Average80 °F79%29.94 "Hg
* Reported Sep 4 7:47 PM — Sep 19 5:42 PM, Merida, Weather by CustomWeather, © 2014

Note: Actual official high and low records may vary slightly from our data, if they occured in-between our weather recording intervals... More about our weather records

Advertising

Merida weather history for previous 24 hours

 ConditionsComfort  
Time TempWeatherWind HumidityBarometerVisibility
5:42 PM
Sep 19
90 °FBroken clouds.9 mph49%29.80 "Hg7 mi
4:51 PM93 °FBroken clouds.12 mph41%29.80 "Hg7 mi
3:49 PM93 °FPartly sunny.17 mph41%29.81 "Hg7 mi
2:45 PM93 °FPartly sunny.17 mph41%29.82 "Hg7 mi
1:44 PM91 °FPartly sunny.10 mph49%29.84 "Hg7 mi
10:46 AM84 °FPartly sunny.14 mph66%29.91 "Hg7 mi
9:50 AM82 °FPartly sunny.12 mph70%29.89 "Hg6 mi
8:47 AM79 °FBroken clouds.10 mph84%29.91 "Hg5 mi
7:47 AM75 °FBroken clouds.6 mph100%29.90 "Hg4 mi
6:52 AM73 °FPassing clouds.8 mph100%29.90 "Hg4 mi
5:51 AM73 °FClear.6 mph100%29.88 "Hg7 mi
4:51 AM75 °FClear.7 mph100%29.87 "Hg7 mi
3:52 AM75 °FClear.12 mph100%29.94 "Hg7 mi
2:54 AM75 °FClear.8 mph100%29.87 "Hg7 mi
1:53 AM77 °FClear.10 mph100%29.88 "Hg7 mi
12:53 AM77 °FClear.8 mph89%29.93 "Hg7 mi
11:45 PM
Sep 18
79 °FClear.9 mph79%29.90 "Hg7 mi
10:45 PM79 °FClear.15 mph79%29.89 "Hg7 mi
9:45 PM81 °FClear.15 mph74%29.87 "Hg7 mi
8:49 PM81 °FClear.12 mph74%29.87 "Hg7 mi
7:47 PM82 °FPassing clouds.9 mph66%29.85 "Hg7 mi
Weather by CustomWeather, © 2014

See weather overviewHow to use our weather pages